STARLINK-32878, 62892

Orbit data source: Space-Track

STARLINK-32878, 62892 is a payload satellite owned by SpaceX/Seattle (US) in LEO that was launched on Tue, 04 Feb 2025 UTC via an FALCON 9 launch vehicle from the Air Force Eastern Test Range (AFETR). Payload-class satellites include a variety of spacecraft equipped with specific instruments for various scientific and technological missions. These include communications satellites like Starlink; space stations such as the ISS; scientific satellites like the Hubble; Earth observation satellites from companies like Planet Labs, Umbra, and HawkEye 360; GPS; miniature CubeSats for education and research; and military/defense satellites.

Loading next visibility...
Identifier
62892, 2025-024P
Orbit
LEO
Country
Flag of USUS
Related business
Manufacturer
SpaceX/Seattle
Mission
Operational spacecraft
Bus & Motor
STARLINK V2M, Unknown motor
Mass
730 kg wet, ~700 kg dry
Launch date (UTC)
Icon of a cake. It is the launch day of the satellite!2025-02-04 (1 year ago)
Launch vehicle
FALCON 9
Launch site
Air Force Eastern Test Range (AFETR)
Object type
Payload
Rocket body
Debris
Shape & HBR
Unknown shape, 17.7 m
Radar Cross Section
Large (>1 m²)

Expand to show TLE details & history
Last TLE update: 10 hours ago

TLE from 10 hours ago
0 STARLINK-32878
1 62892U 25024P   26035.33739424  .00040210  00000-0  14623-2 0  9996
2 62892  42.9984 153.8501 0000993 256.3890 103.6851 15.27590282 57166
Epoch: 2026-02-04T08:05Z
TLE epoch observation values (Epoch: 2026-02-04T08:05:50.862Z)
Latitude
-0.00001°
Longitude
-102.11726°
Altitude
482.955 km
Speed
7.626 km/s
True Right ascension
10h 15m 24s
True Declination
0° 00' 00"
Sunlit
Object was in full shadow at epoch
Visualization orbit readout
Latitude
Unknown
Longitude
Unknown
Altitude
Unknown
Speed
Unknown
Apparent Right ascension
Unknown
Apparent Declination
Unknown
Sunlit
N/A
Visualization observer readout
Local Sidereal Time
20:15:29
Azimuth
Unknown
Elevation
Unknown
Doppler factor
Unknown
Orbital elements
Apogee altitude
485.645 km
Perigee altitude
484.282 km
Semi-major axis
6,863.101 km
Eccentricity
0.0001
Inclination
42.9984°
RAAN
153.8501°
Arg. of periapsis
256.389°
True anomaly
103.69616°
Mean anomaly
103.6851°
Eccentric anomaly
103.69063°
Mean motion
3.81736 °/min
Orbital period
94.31 mins
BSTAR
0.0014623
Loading maneuver chart data...
Computing Atmospheric mass density...
Loading historical data...
Loading historical data...
Loading historical data...
Loading historical data...
Loading historical data...
Loading historical data...
Loading historical data...

Documentation

Showing up to 5 results
|